DG2GGP-11 Weather Reports


time (UTC)temp
F
wind
direction
speed
knots
gust
knots
rain 1hr
in
rain 24hr
in
rain mn
in
humidity
%
barometer
mb
20260506163916 49 215 5.2 0.0 0.00 0.22 0.20 85 1008.4
20260506162916 49 210 5.2 0.0 0.00 0.22 0.19 85 1008.5
20260506160916 50 205 3.5 0.0 0.00 0.22 0.16 86 1008.6
20260506155916 50 158 1.7 0.0 0.00 0.22 0.15 86 1008.5
20260506154916 50 240 5.2 0.0 0.00 0.22 0.14 85 1008.4
20260506153916 50 215 5.2 0.0 0.00 0.22 0.14 85 1008.4
20260506152916 51 183 5.2 0.0 0.00 0.22 0.13 85 1008.3
20260506151916 51 125 3.5 0.0 0.00 0.22 0.13 85 1008.2
20260506150916 51 168 4.3 0.0 0.00 0.22 0.11 84 1008.2
20260506145916 51 185 5.2 0.0 0.00 0.22 0.11 84 1008.1
20260506144916 51 238 6.1 0.0 0.00 0.22 0.10 83 1008.0
20260506143916 51 185 6.1 0.0 0.00 0.22 0.10 82 1007.9
20260506142916 52 158 6.1 0.0 0.00 0.22 0.10 83 1007.8
20260506141916 52 223 5.2 0.0 0.00 0.22 0.09 84 1007.7
20260506140917 52 193 6.1 0.0 0.00 0.22 0.09 83 1007.6
20260506135917 53 173 3.5 0.0 0.00 0.22 0.09 84 1007.4
20260506134916 53 175 5.2 0.0 0.00 0.22 0.09 84 1007.3
20260506133917 53 233 3.5 0.0 0.00 0.22 0.08 84 1007.3
20260506132916 53 300 6.1 0.0 0.00 0.22 0.08 84 1007.2
20260506131916 53 220 3.5 0.0 0.00 0.22 0.08 85 1007.2
20260506130916 53 328 5.2 0.0 0.00 0.22 0.07 85 1007.2
20260506125917 53 280 3.5 0.0 0.00 0.22 0.06 85 1007.2
20260506124916 53 315 4.3 0.0 0.00 0.22 0.05 83 1007.2
20260506123916 53 180 4.3 0.0 0.00 0.22 0.04 83 1007.1
20260506122916 53 190 3.5 0.0 0.00 0.22 0.04 82 1007.0
20260506121916 54 238 6.1 0.0 0.00 0.22 0.01 80 1006.9
20260506120916 54 265 5.2 0.0 0.00 0.22 0.01 78 1006.9
20260506115916 55 8 7.8 0.0 0.00 0.22 0.01 76 1006.9
20260506114916 56 295 6.1 0.0 0.00 0.22 0.01 71 1006.8
20260506113916 58 185 8.7 0.0 0.00 0.22 0.01 67 1006.6
20260506112917 59 200 6.1 0.0 0.00 0.22 0.01 67 1006.5
20260506111916 60 185 5.2 0.0 0.00 0.22 0.01 67 1006.4
20260506110916 60 160 5.2 0.0 0.00 0.22 0.01 66 1006.4
20260506105916 60 150 6.1 0.0 0.00 0.22 0.01 68 1006.4
20260506104916 59 175 5.2 0.0 0.00 0.22 0.01 69 1006.5
20260506103916 59 175 6.1 0.0 0.00 0.22 0.01 70 1006.6
20260506061916 47 158 3.5 0.0 0.00 0.22 0.01 93 1007.0
20260506060917 46 160 0.0 0.0 0.00 0.22 0.01 93 1007.0
20260506050917 42 138 0.0 0.0 0.00 0.22 0.01 93 1007.3
20260506044916 41 120 0.0 0.0 0.00 0.22 0.01 93 1007.4
20260506043916 42 98 0.0 0.0 0.00 0.22 0.01 93 1007.4
20260506042916 42 358 0.0 0.0 0.00 0.22 0.01 93 1007.4
20260506041916 42 0 0.0 0.0 0.00 0.22 0.01 93 1007.6
20260506040916 42 355 0.0 0.0 0.00 0.22 0.01 93 1007.6
20260506035917 42 25 0.0 0.0 0.00 0.22 0.01 93 1007.6
20260506034916 43 25 2.6 0.0 0.00 0.22 0.01 93 1007.4
20260506033916 43 308 3.5 0.0 0.00 0.22 0.01 93 1007.4
20260506032917 43 345 3.5 0.0 0.00 0.22 0.01 93 1007.5
20260506031916 43 240 4.3 0.0 0.00 0.22 0.01 93 1007.6
20260506030917 43 233 3.5 0.0 0.00 0.22 0.01 93 1007.8
20260506025916 43 138 2.6 0.0 0.00 0.22 0.01 93 1007.8
20260506024916 43 340 3.5 0.0 0.00 0.22 0.01 93 1008.1
20260506023916 43 355 0.0 0.0 0.00 0.22 0.01 93 1008.2
20260506022917 43 350 0.0 0.0 0.00 0.22 0.01 93 1008.3
20260506021916 44 233 4.3 0.0 0.00 0.22 0.01 93 1008.2
20260506020916 44 260 2.6 0.0 0.00 0.22 0.01 93 1008.3
20260506015916 44 318 1.7 0.0 0.00 0.22 0.01 93 1008.3
20260506014917 44 318 4.3 0.0 0.00 0.22 0.01 93 1008.5
20260506013917 44 220 2.6 0.0 0.00 0.22 0.01 93 1008.5
20260506012916 45 270 2.6 0.0 0.00 0.22 0.01 93 1008.7
20260506011916 45 320 3.5 0.0 0.00 0.22 0.01 93 1008.8
20260506010916 44 323 3.5 0.0 0.00 0.22 0.01 93 1008.9
20260506005916 44 263 2.6 0.0 0.00 0.22 0.01 93 1008.8
20260506004917 44 355 2.6 0.0 0.00 0.22 0.01 93 1008.6
20260506003916 44 263 1.7 0.0 0.00 0.22 0.01 93 1008.7
20260506002917 44 293 2.6 0.0 0.00 0.22 0.01 93 1008.7
20260506001917 43 230 0.0 0.0 0.00 0.22 0.01 92 1008.9
20260506000916 44 230 0.0 0.0 0.00 0.22 0.01 92 1009.1
20260505235917 44 340 0.0 0.0 0.00 0.22 0.01 92 1009.2
20260505234916 45 340 0.0 0.0 0.00 0.22 0.01 92 1009.2
20260505233916 45 340 0.0 0.0 0.00 0.22 0.01 92 1009.4
20260505232917 45 350 0.0 0.0 0.00 0.22 0.01 92 1009.5
20260505231917 45 323 0.0 0.0 0.00 0.22 0.01 91 1009.4
20260505230917 45 328 0.0 0.0 0.00 0.22 0.01 91 1009.6
20260505225916 46 318 3.5 0.0 0.00 0.22 0.00 91 1009.6
20260505224916 46 198 2.6 0.0 0.00 0.22 0.00 91 1009.5
20260505223917 46 5 0.0 0.0 0.00 0.22 0.00 91 1009.5
20260505222917 47 5 0.0 0.0 0.00 0.22 0.00 90 1009.5
20260505221916 47 3 0.0 0.0 0.00 0.22 0.00 90 1009.6
20260505220916 47 355 0.0 0.0 0.00 0.22 0.00 90 1009.6
20260505215917 48 0 4.3 0.0 0.00 0.00 0.22 90 1009.7
20260505214917 48 330 0.0 0.0 0.00 0.00 0.22 89 1009.6
20260505213917 48 30 0.0 0.0 0.00 0.00 0.22 89 1009.6
20260505212917 49 310 0.0 0.0 0.00 0.00 0.22 88 1009.7
20260505211917 49 358 2.6 0.0 0.00 0.00 0.22 88 1009.7
20260505210917 50 280 0.0 0.0 0.00 0.00 0.22 88 1009.9
20260505205917 50 235 2.6 0.0 0.00 0.00 0.22 87 1009.8
20260505204917 50 238 4.3 0.0 0.00 0.00 0.22 87 1009.8
20260505203917 50 293 3.5 0.0 0.00 0.00 0.22 87 1009.5
20260505202916 51 210 0.0 0.0 0.00 0.00 0.22 87 1009.4
20260505201916 51 203 4.3 0.0 0.00 0.00 0.22 87 1009.4
20260505200917 51 170 3.5 0.0 0.00 0.00 0.22 87 1009.3
20260505195916 51 313 2.6 0.0 0.00 0.00 0.22 86 1009.3
20260505194917 52 205 3.5 0.0 0.00 0.00 0.22 86 1009.3
20260505193916 52 183 2.6 0.0 0.00 0.00 0.22 87 1009.1
20260505192917 52 170 3.5 0.0 0.00 0.00 0.22 87 1008.9
20260505191916 53 243 2.6 0.0 0.00 0.00 0.22 86 1008.7
20260505190917 53 190 3.5 0.0 0.00 0.00 0.22 87 1008.9
20260505185916 53 215 3.5 0.0 0.00 0.00 0.22 87 1009.0
20260505184917 53 215 5.2 0.0 0.00 0.00 0.22 86 1009.1
20260505183916 53 205 3.5 0.0 0.00 0.00 0.22 86 1008.8
20260505182917 53 203 3.5 0.0 0.00 0.00 0.22 86 1008.7
20260505181917 54 210 3.5 0.0 0.00 0.00 0.22 85 1008.7
20260505180916 54 230 4.3 0.0 0.00 0.00 0.22 84 1008.6
20260505175916 54 208 4.3 0.0 0.00 0.00 0.22 83 1008.5
20260505174916 55 210 4.3 0.0 0.00 0.00 0.22 83 1008.6
20260505173917 54 228 0.0 0.0 0.00 0.00 0.22 83 1008.6
20260505172916 54 223 5.2 0.0 0.00 0.00 0.22 83 1008.6
20260505171916 55 210 3.5 0.0 0.00 0.00 0.22 84 1008.6
20260505170916 54 115 3.5 0.0 0.00 0.00 0.22 84 1008.5
20260505165917 54 143 5.2 0.0 0.00 0.00 0.21 85 1008.6
20260505164917 54 175 1.7 0.0 0.00 0.00 0.21 85 1008.6